Year,Month,Day,Hour,Minute,Value (Times are PST for temperature in C)
2013,03,03,00,00,3.10
2013,03,03,00,01,3.10
2013,03,03,00,02,2.90
2013,03,03,00,03,2.90
2013,03,03,00,04,2.90
2013,03,03,00,05,2.90
2013,03,03,00,06,2.90
2013,03,03,00,07,2.90
2013,03,03,00,08,2.90
2013,03,03,00,09,2.90
2013,03,03,00,10,2.90
2013,03,03,00,11,2.90
2013,03,03,00,12,2.80
2013,03,03,00,13,2.80
2013,03,03,00,14,2.70
2013,03,03,00,15,2.70
2013,03,03,00,16,2.70
2013,03,03,00,17,2.70
2013,03,03,00,18,2.70
2013,03,03,00,19,2.70
2013,03,03,00,20,2.70
2013,03,03,00,21,2.70
2013,03,03,00,22,2.70
2013,03,03,00,23,2.70
2013,03,03,00,24,2.70
2013,03,03,00,25,2.70
2013,03,03,00,26,2.70
2013,03,03,00,27,2.90
2013,03,03,00,28,2.90
2013,03,03,00,29,3.00
2013,03,03,00,30,3.10
2013,03,03,00,31,3.10
2013,03,03,00,32,3.10
2013,03,03,00,33,3.10
2013,03,03,00,34,3.00
2013,03,03,00,35,2.90
2013,03,03,00,36,2.80
2013,03,03,00,37,2.80
2013,03,03,00,38,2.80
2013,03,03,00,39,2.70
2013,03,03,00,40,2.70
2013,03,03,00,41,2.70
2013,03,03,00,42,2.70
2013,03,03,00,43,2.70
2013,03,03,00,44,2.70
2013,03,03,00,45,2.70
2013,03,03,00,46,2.80
2013,03,03,00,47,2.80
2013,03,03,00,48,2.80
2013,03,03,00,49,2.90
2013,03,03,00,50,2.90
2013,03,03,00,51,3.00
2013,03,03,00,52,3.10
2013,03,03,00,53,3.10
2013,03,03,00,54,3.10
2013,03,03,00,55,3.10
2013,03,03,00,56,3.10
2013,03,03,00,57,3.20
2013,03,03,00,58,3.20
2013,03,03,00,59,3.30
2013,03,03,01,00,3.40
2013,03,03,01,01,3.50
2013,03,03,01,02,3.50
2013,03,03,01,03,3.60
2013,03,03,01,04,3.60
2013,03,03,01,05,3.70
2013,03,03,01,06,3.70
2013,03,03,01,07,3.70
2013,03,03,01,08,3.70
2013,03,03,01,09,3.70
2013,03,03,01,10,3.70
2013,03,03,01,11,3.70
2013,03,03,01,12,3.70
2013,03,03,01,13,3.70
2013,03,03,01,14,3.60
2013,03,03,01,15,3.60
2013,03,03,01,16,3.50
2013,03,03,01,17,3.50
2013,03,03,01,18,3.50
2013,03,03,01,19,3.40
2013,03,03,01,20,3.40
2013,03,03,01,21,3.40
2013,03,03,01,22,3.40
2013,03,03,01,23,3.40
2013,03,03,01,24,3.40
2013,03,03,01,25,3.30
2013,03,03,01,26,3.30
2013,03,03,01,27,3.30
2013,03,03,01,28,3.30
2013,03,03,01,29,3.30
2013,03,03,01,30,3.30
2013,03,03,01,31,3.30
2013,03,03,01,32,3.30
2013,03,03,01,33,3.30
2013,03,03,01,34,3.30
2013,03,03,01,35,3.30
2013,03,03,01,36,3.30
2013,03,03,01,37,3.30
2013,03,03,01,38,3.30
2013,03,03,01,39,3.30
2013,03,03,01,40,3.30
2013,03,03,01,41,3.30
2013,03,03,01,42,3.30
2013,03,03,01,43,3.30
2013,03,03,01,44,3.30
2013,03,03,01,45,3.30
2013,03,03,01,46,3.30
2013,03,03,01,47,3.30
2013,03,03,01,48,3.30
2013,03,03,01,49,3.30
2013,03,03,01,50,3.30
2013,03,03,01,51,3.30
2013,03,03,01,52,3.30
2013,03,03,01,53,3.30
2013,03,03,01,54,3.20
2013,03,03,01,55,3.10
2013,03,03,01,56,2.90
2013,03,03,01,57,2.80
2013,03,03,01,58,2.70
2013,03,03,01,59,2.70
2013,03,03,02,00,2.60
2013,03,03,02,01,2.50
2013,03,03,02,02,2.40
2013,03,03,02,03,2.30
2013,03,03,02,04,2.20
2013,03,03,02,05,2.20
2013,03,03,02,06,2.20
2013,03,03,02,07,2.10
2013,03,03,02,08,2.10
2013,03,03,02,09,2.00
2013,03,03,02,10,2.00
2013,03,03,02,11,1.90
2013,03,03,02,12,1.90
2013,03,03,02,13,1.90
2013,03,03,02,14,1.90
2013,03,03,02,15,2.00
2013,03,03,02,16,2.00
2013,03,03,02,17,2.10
2013,03,03,02,18,2.20
2013,03,03,02,19,2.20
2013,03,03,02,20,2.20
2013,03,03,02,21,2.20
2013,03,03,02,22,2.20
2013,03,03,02,23,2.20
2013,03,03,02,24,2.30
2013,03,03,02,25,2.40
2013,03,03,02,26,2.50
2013,03,03,02,27,2.50
2013,03,03,02,28,2.60
2013,03,03,02,29,2.70
2013,03,03,02,30,2.70
2013,03,03,02,31,2.60
2013,03,03,02,32,2.50
2013,03,03,02,33,2.40
2013,03,03,02,34,2.20
2013,03,03,02,35,2.10
2013,03,03,02,36,2.00
2013,03,03,02,37,1.80
2013,03,03,02,38,1.70
2013,03,03,02,39,1.70
2013,03,03,02,40,1.60
2013,03,03,02,41,1.50
2013,03,03,02,42,1.40
2013,03,03,02,43,1.30
2013,03,03,02,44,1.30
2013,03,03,02,45,1.30
2013,03,03,02,46,1.30
2013,03,03,02,47,1.30
2013,03,03,02,48,1.30
2013,03,03,02,49,1.30
2013,03,03,02,50,1.30
2013,03,03,02,51,1.30
2013,03,03,02,52,1.20
2013,03,03,02,53,1.10
2013,03,03,02,54,1.10
2013,03,03,02,55,1.00
2013,03,03,02,56,1.00
2013,03,03,02,57,1.00
2013,03,03,02,58,1.00
2013,03,03,02,59,0.90
2013,03,03,03,00,0.90
2013,03,03,03,01,0.90
2013,03,03,03,02,1.00
2013,03,03,03,03,1.00
2013,03,03,03,04,1.00
2013,03,03,03,05,1.00
2013,03,03,03,06,1.00
2013,03,03,03,07,0.90
2013,03,03,03,08,0.90
2013,03,03,03,09,1.00
2013,03,03,03,10,1.10
2013,03,03,03,11,1.20
2013,03,03,03,12,1.30
2013,03,03,03,13,1.40
2013,03,03,03,14,1.50
2013,03,03,03,15,1.50
2013,03,03,03,16,1.60
2013,03,03,03,17,1.70
2013,03,03,03,18,1.80
2013,03,03,03,19,1.80
2013,03,03,03,20,1.90
2013,03,03,03,21,1.90
2013,03,03,03,22,1.80
2013,03,03,03,23,1.80
2013,03,03,03,24,1.80
2013,03,03,03,25,1.80
2013,03,03,03,26,1.80
2013,03,03,03,27,1.70
2013,03,03,03,28,1.70
2013,03,03,03,29,1.60
2013,03,03,03,30,1.50
2013,03,03,03,31,1.40
2013,03,03,03,32,1.20
2013,03,03,03,33,1.00
2013,03,03,03,34,0.90
2013,03,03,03,35,0.80
2013,03,03,03,36,0.80
2013,03,03,03,37,0.80
2013,03,03,03,38,0.80
2013,03,03,03,39,0.80
2013,03,03,03,40,0.80
2013,03,03,03,41,0.80
2013,03,03,03,42,0.80
2013,03,03,03,43,0.80
2013,03,03,03,44,0.80
2013,03,03,03,45,0.80
2013,03,03,03,46,0.70
2013,03,03,03,47,0.70
2013,03,03,03,48,0.70
2013,03,03,03,49,0.60
2013,03,03,03,50,0.60
2013,03,03,03,51,0.60
2013,03,03,03,52,0.60
2013,03,03,03,53,0.50
2013,03,03,03,54,0.50
2013,03,03,03,55,0.60
2013,03,03,03,56,0.60
2013,03,03,03,57,0.70
2013,03,03,03,58,0.70
2013,03,03,03,59,0.70
2013,03,03,04,00,0.80
2013,03,03,04,01,0.90
2013,03,03,04,02,1.00
2013,03,03,04,03,1.10
2013,03,03,04,04,1.20
2013,03,03,04,05,1.30
2013,03,03,04,06,1.50
2013,03,03,04,07,1.70
2013,03,03,04,08,1.90
2013,03,03,04,09,2.10
2013,03,03,04,10,2.30
2013,03,03,04,11,2.50
2013,03,03,04,12,2.60
2013,03,03,04,13,2.70
2013,03,03,04,14,2.70
2013,03,03,04,15,2.80
2013,03,03,04,16,2.90
2013,03,03,04,17,2.90
2013,03,03,04,18,3.00
2013,03,03,04,19,3.10
2013,03,03,04,20,3.10
2013,03,03,04,21,3.10
2013,03,03,04,22,3.10
2013,03,03,04,23,3.10
2013,03,03,04,24,3.10
2013,03,03,04,25,3.10
2013,03,03,04,26,3.10
2013,03,03,04,27,3.00
2013,03,03,04,28,2.90
2013,03,03,04,29,2.90
2013,03,03,04,30,2.90
2013,03,03,04,31,2.90
2013,03,03,04,32,2.80
2013,03,03,04,33,2.80
2013,03,03,04,34,2.70
2013,03,03,04,35,2.70
2013,03,03,04,36,2.70
2013,03,03,04,37,2.60
2013,03,03,04,38,2.50
2013,03,03,04,39,2.50
2013,03,03,04,40,2.50
2013,03,03,04,41,2.40
2013,03,03,04,42,2.40
2013,03,03,04,43,2.30
2013,03,03,04,44,2.30
2013,03,03,04,45,2.20
2013,03,03,04,46,2.20
2013,03,03,04,47,2.20
2013,03,03,04,48,2.20
2013,03,03,04,49,2.20
2013,03,03,04,50,2.20
2013,03,03,04,51,2.20
2013,03,03,04,52,2.20
2013,03,03,04,53,2.10
2013,03,03,04,54,2.10
2013,03,03,04,55,2.10
2013,03,03,04,56,2.10
2013,03,03,04,57,2.10
2013,03,03,04,58,2.00
2013,03,03,04,59,2.00
2013,03,03,05,00,2.00
2013,03,03,05,01,2.00
2013,03,03,05,02,1.90
2013,03,03,05,03,1.90
2013,03,03,05,04,1.90
2013,03,03,05,05,1.90
2013,03,03,05,06,1.90
2013,03,03,05,07,1.80
2013,03,03,05,08,1.80
2013,03,03,05,09,1.80
2013,03,03,05,10,1.80
2013,03,03,05,11,1.80
2013,03,03,05,12,1.70
2013,03,03,05,13,1.70
2013,03,03,05,14,1.60
2013,03,03,05,15,1.60
2013,03,03,05,16,1.50
2013,03,03,05,17,1.50
2013,03,03,05,18,1.40
2013,03,03,05,19,1.30
2013,03,03,05,20,1.30
2013,03,03,05,21,1.30
2013,03,03,05,22,1.30
2013,03,03,05,23,1.30
2013,03,03,05,24,1.30
2013,03,03,05,25,1.30
2013,03,03,05,26,1.30
2013,03,03,05,27,1.30
2013,03,03,05,28,1.30
2013,03,03,05,29,1.30
2013,03,03,05,30,1.30
2013,03,03,05,31,1.30
2013,03,03,05,32,1.30
2013,03,03,05,33,1.30
2013,03,03,05,34,1.30
2013,03,03,05,35,1.30
2013,03,03,05,36,1.30
2013,03,03,05,37,1.30
2013,03,03,05,38,1.30
2013,03,03,05,39,1.30
2013,03,03,05,40,1.30
2013,03,03,05,41,1.30
2013,03,03,05,42,1.30
2013,03,03,05,43,1.30
2013,03,03,05,44,1.20
2013,03,03,05,45,1.20
2013,03,03,05,46,1.10
2013,03,03,05,47,1.10
2013,03,03,05,48,1.00
2013,03,03,05,49,0.90
2013,03,03,05,50,0.80
2013,03,03,05,51,0.80
2013,03,03,05,52,0.90
2013,03,03,05,53,0.90
2013,03,03,05,54,0.90
2013,03,03,05,55,0.90
2013,03,03,05,56,0.90
2013,03,03,05,57,1.00
2013,03,03,05,58,1.00
2013,03,03,05,59,1.10
2013,03,03,06,00,1.10
2013,03,03,06,01,1.10
2013,03,03,06,02,1.10
2013,03,03,06,03,1.10
2013,03,03,06,04,1.10
2013,03,03,06,05,1.10
2013,03,03,06,06,1.10
2013,03,03,06,07,1.10
2013,03,03,06,08,1.10
2013,03,03,06,09,1.00
2013,03,03,06,10,1.00
2013,03,03,06,11,1.00
2013,03,03,06,12,1.00
2013,03,03,06,13,1.00
2013,03,03,06,14,1.00
2013,03,03,06,15,1.00
2013,03,03,06,16,1.10
2013,03,03,06,17,1.10
2013,03,03,06,18,1.10
2013,03,03,06,19,1.10
2013,03,03,06,20,1.20
2013,03,03,06,21,1.20
2013,03,03,06,22,1.20
2013,03,03,06,23,1.20
2013,03,03,06,24,1.30
2013,03,03,06,25,1.30
2013,03,03,06,26,1.30
2013,03,03,06,27,1.30
2013,03,03,06,28,1.30
2013,03,03,06,29,1.30
2013,03,03,06,30,1.20
2013,03,03,06,31,1.20
2013,03,03,06,32,1.20
2013,03,03,06,33,1.10
2013,03,03,06,34,1.10
2013,03,03,06,35,1.00
2013,03,03,06,36,1.00
2013,03,03,06,37,0.90
2013,03,03,06,38,0.90
2013,03,03,06,39,0.80
2013,03,03,06,40,0.80
2013,03,03,06,41,0.80
2013,03,03,06,42,0.80
2013,03,03,06,43,0.60
2013,03,03,06,44,0.50
2013,03,03,06,45,0.40
2013,03,03,06,46,0.40
2013,03,03,06,47,0.30
2013,03,03,06,48,0.30
2013,03,03,06,49,0.30
2013,03,03,06,50,0.30
2013,03,03,06,51,0.40
2013,03,03,06,52,0.40
2013,03,03,06,53,0.50
2013,03,03,06,54,0.50
2013,03,03,06,55,0.60
2013,03,03,06,56,0.60
2013,03,03,06,57,0.70
2013,03,03,06,58,0.80
2013,03,03,06,59,0.80
2013,03,03,07,00,0.90
2013,03,03,07,01,1.00
2013,03,03,07,02,1.00
2013,03,03,07,03,1.10
2013,03,03,07,04,1.10
2013,03,03,07,05,1.20
2013,03,03,07,06,1.20
2013,03,03,07,07,1.20
2013,03,03,07,08,1.30
2013,03,03,07,09,1.30
2013,03,03,07,10,1.30
2013,03,03,07,11,1.30
2013,03,03,07,12,1.30
2013,03,03,07,13,1.30
2013,03,03,07,14,1.30
2013,03,03,07,15,1.30
2013,03,03,07,16,1.30
2013,03,03,07,17,1.30
2013,03,03,07,18,1.30
2013,03,03,07,19,1.40
2013,03,03,07,20,1.40
2013,03,03,07,21,1.40
2013,03,03,07,22,1.30
2013,03,03,07,23,1.30
2013,03,03,07,24,1.30
2013,03,03,07,25,1.30
2013,03,03,07,26,1.30
2013,03,03,07,27,1.30
2013,03,03,07,28,1.30
2013,03,03,07,29,1.30
2013,03,03,07,30,1.40
2013,03,03,07,31,1.40
2013,03,03,07,32,1.40
2013,03,03,07,33,1.50
2013,03,03,07,34,1.50
2013,03,03,07,35,1.60
2013,03,03,07,36,1.60
2013,03,03,07,37,1.70
2013,03,03,07,38,1.80
2013,03,03,07,39,1.80
2013,03,03,07,40,1.90
2013,03,03,07,41,1.90
2013,03,03,07,42,2.00
2013,03,03,07,43,2.10
2013,03,03,07,44,2.10
2013,03,03,07,45,2.20
2013,03,03,07,46,2.20
2013,03,03,07,47,2.30
2013,03,03,07,48,2.40
2013,03,03,07,49,2.60
2013,03,03,07,50,2.70
2013,03,03,07,51,2.80
2013,03,03,07,52,2.80
2013,03,03,07,53,2.90
2013,03,03,07,54,3.00
2013,03,03,07,55,3.10
2013,03,03,07,56,3.20
2013,03,03,07,57,3.30
2013,03,03,07,58,3.40
2013,03,03,07,59,3.50
2013,03,03,08,00,3.50
2013,03,03,08,01,3.50
2013,03,03,08,02,3.50
2013,03,03,08,03,3.60
2013,03,03,08,04,3.50
2013,03,03,08,05,3.50
2013,03,03,08,06,3.50
2013,03,03,08,07,3.50
2013,03,03,08,08,3.50
2013,03,03,08,09,3.60
2013,03,03,08,10,3.60
2013,03,03,08,11,3.70
2013,03,03,08,12,3.70
2013,03,03,08,13,3.60
2013,03,03,08,14,3.60
2013,03,03,08,15,3.50
2013,03,03,08,16,3.50
2013,03,03,08,17,3.50
2013,03,03,08,18,3.50
2013,03,03,08,19,3.50
2013,03,03,08,20,3.50
2013,03,03,08,21,3.40
2013,03,03,08,22,3.50
2013,03,03,08,23,3.40
2013,03,03,08,24,3.40
2013,03,03,08,25,3.50
2013,03,03,08,26,3.60
2013,03,03,08,27,3.70
2013,03,03,08,28,3.80
2013,03,03,08,29,3.90
2013,03,03,08,30,4.00
2013,03,03,08,31,4.10
2013,03,03,08,32,4.20
2013,03,03,08,33,4.40
2013,03,03,08,34,4.50
2013,03,03,08,35,4.60
2013,03,03,08,36,4.80
2013,03,03,08,37,4.90
2013,03,03,08,38,5.00
2013,03,03,08,39,5.10
2013,03,03,08,40,5.20
2013,03,03,08,41,5.30
2013,03,03,08,42,5.40
2013,03,03,08,43,5.40
2013,03,03,08,44,5.40
2013,03,03,08,45,5.50
2013,03,03,08,46,5.60
2013,03,03,08,47,5.60
2013,03,03,08,48,5.70
2013,03,03,08,49,5.70
2013,03,03,08,50,5.80
2013,03,03,08,51,5.90
2013,03,03,08,52,5.90
2013,03,03,08,53,6.00
2013,03,03,08,54,6.10
2013,03,03,08,55,6.20
2013,03,03,08,56,6.30
2013,03,03,08,57,6.30
2013,03,03,08,58,6.40
2013,03,03,08,59,6.50
2013,03,03,09,00,6.60
2013,03,03,09,01,6.70
2013,03,03,09,02,6.70
2013,03,03,09,03,6.70
2013,03,03,09,04,6.80
2013,03,03,09,05,6.80
2013,03,03,09,06,6.80
2013,03,03,09,07,6.90
2013,03,03,09,08,7.00
2013,03,03,09,09,7.10
2013,03,03,09,10,7.20
2013,03,03,09,11,7.20
2013,03,03,09,12,7.30
2013,03,03,09,13,7.30
2013,03,03,09,14,7.30
2013,03,03,09,15,7.30
2013,03,03,09,16,7.40
2013,03,03,09,17,7.50
2013,03,03,09,18,7.60
2013,03,03,09,19,7.60
2013,03,03,09,20,7.50
2013,03,03,09,21,7.50
2013,03,03,09,22,7.40
2013,03,03,09,23,7.40
2013,03,03,09,24,7.40
2013,03,03,09,25,7.40
2013,03,03,09,26,7.50
2013,03,03,09,27,7.50
2013,03,03,09,28,7.50
2013,03,03,09,29,7.50
2013,03,03,09,30,7.60
2013,03,03,09,31,7.60
2013,03,03,09,32,7.70
2013,03,03,09,33,7.70
2013,03,03,09,34,7.70
2013,03,03,09,35,7.60
2013,03,03,09,36,7.50
2013,03,03,09,37,7.50
2013,03,03,09,38,7.50
2013,03,03,09,39,7.60
2013,03,03,09,40,7.60
2013,03,03,09,41,7.70
2013,03,03,09,42,7.70
2013,03,03,09,43,7.70
2013,03,03,09,44,7.70
2013,03,03,09,45,7.60
2013,03,03,09,46,7.60
2013,03,03,09,47,7.70
2013,03,03,09,48,7.70
2013,03,03,09,49,7.80
2013,03,03,09,50,7.80
2013,03,03,09,51,7.90
2013,03,03,09,52,8.00
2013,03,03,09,53,8.10
2013,03,03,09,54,8.10
2013,03,03,09,55,8.10
2013,03,03,09,56,8.10
2013,03,03,09,57,8.10
2013,03,03,09,58,8.10
2013,03,03,09,59,8.10
2013,03,03,10,00,8.20
2013,03,03,10,01,8.20
2013,03,03,10,02,8.20
2013,03,03,10,03,8.20
2013,03,03,10,04,8.20
2013,03,03,10,05,8.20
2013,03,03,10,06,8.20
2013,03,03,10,07,8.20
2013,03,03,10,08,8.30
2013,03,03,10,09,8.30
2013,03,03,10,10,8.40
2013,03,03,10,11,8.50
2013,03,03,10,12,8.50
2013,03,03,10,13,8.60
2013,03,03,10,14,8.60
2013,03,03,10,15,8.70
2013,03,03,10,16,8.60
2013,03,03,10,17,8.70
2013,03,03,10,18,8.60
2013,03,03,10,19,8.60
2013,03,03,10,20,8.60
2013,03,03,10,21,8.60
2013,03,03,10,22,8.70
2013,03,03,10,23,8.70
2013,03,03,10,24,8.70
2013,03,03,10,25,8.70
2013,03,03,10,26,8.60
2013,03,03,10,27,8.50
2013,03,03,10,28,8.40
2013,03,03,10,29,8.40
2013,03,03,10,30,8.30
2013,03,03,10,31,8.30
2013,03,03,10,32,8.20
2013,03,03,10,33,8.20
2013,03,03,10,34,8.20
2013,03,03,10,35,8.20
2013,03,03,10,36,8.20
2013,03,03,10,37,8.20
2013,03,03,10,38,8.30
2013,03,03,10,39,8.40
2013,03,03,10,40,8.40
2013,03,03,10,41,8.50
2013,03,03,10,42,8.50
2013,03,03,10,43,8.60
2013,03,03,10,44,8.70
2013,03,03,10,45,8.70
2013,03,03,10,46,8.70
2013,03,03,10,47,8.70
2013,03,03,10,48,8.70
2013,03,03,10,49,8.70
2013,03,03,10,50,8.70
2013,03,03,10,51,8.60
2013,03,03,10,52,8.60
2013,03,03,10,53,8.70
2013,03,03,10,54,8.70
2013,03,03,10,55,8.70
2013,03,03,10,56,8.80
2013,03,03,10,57,8.80
2013,03,03,10,58,8.90
2013,03,03,10,59,8.90
2013,03,03,11,00,8.80
2013,03,03,11,01,8.80
2013,03,03,11,02,8.90
2013,03,03,11,03,8.90
2013,03,03,11,04,8.90
2013,03,03,11,05,8.90
2013,03,03,11,06,8.70
2013,03,03,11,07,8.70
2013,03,03,11,08,8.60
2013,03,03,11,09,8.50
2013,03,03,11,10,8.50
2013,03,03,11,11,8.40
2013,03,03,11,12,8.40
2013,03,03,11,13,8.40
2013,03,03,11,14,8.50
2013,03,03,11,15,8.40
2013,03,03,11,16,8.40
2013,03,03,11,17,8.30
2013,03,03,11,18,8.30
2013,03,03,11,19,8.30
2013,03,03,11,20,8.30
2013,03,03,11,21,8.30
2013,03,03,11,22,8.30
2013,03,03,11,23,8.40
2013,03,03,11,24,8.40
2013,03,03,11,25,8.40
2013,03,03,11,26,8.50
2013,03,03,11,27,8.70
2013,03,03,11,28,8.80
2013,03,03,11,29,8.90
2013,03,03,11,30,8.80
2013,03,03,11,31,8.80
2013,03,03,11,32,8.70
2013,03,03,11,33,8.70
2013,03,03,11,34,8.80
2013,03,03,11,35,8.80
2013,03,03,11,36,8.90
2013,03,03,11,37,8.90
2013,03,03,11,38,9.00
2013,03,03,11,39,9.20
2013,03,03,11,40,9.30
2013,03,03,11,41,9.30
2013,03,03,11,42,9.40
2013,03,03,11,43,9.50
2013,03,03,11,44,9.70
2013,03,03,11,45,9.80
2013,03,03,11,46,10.00
2013,03,03,11,47,10.20
2013,03,03,11,48,10.40
2013,03,03,11,49,10.50
2013,03,03,11,50,10.60
2013,03,03,11,51,10.70
2013,03,03,11,52,10.80
2013,03,03,11,53,10.90
2013,03,03,11,54,10.90
2013,03,03,11,55,10.90
2013,03,03,11,56,10.70
2013,03,03,11,57,10.70
2013,03,03,11,58,10.70
2013,03,03,11,59,10.70
2013,03,03,12,00,10.90
2013,03,03,12,01,11.00
2013,03,03,12,02,11.20
2013,03,03,12,03,11.30
2013,03,03,12,04,11.30
2013,03,03,12,05,11.30
2013,03,03,12,06,11.20
2013,03,03,12,07,11.20
2013,03,03,12,08,11.40
2013,03,03,12,09,11.50
2013,03,03,12,10,11.40
2013,03,03,12,11,11.20
2013,03,03,12,12,11.10
2013,03,03,12,13,11.10
2013,03,03,12,14,11.30
2013,03,03,12,15,11.10
2013,03,03,12,16,10.90
2013,03,03,12,17,10.70
2013,03,03,12,18,10.50
2013,03,03,12,19,10.20
2013,03,03,12,20,9.90
2013,03,03,12,21,9.70
2013,03,03,12,22,9.50
2013,03,03,12,23,9.40
2013,03,03,12,24,9.30
2013,03,03,12,25,9.30
2013,03,03,12,26,9.20
2013,03,03,12,27,9.10
2013,03,03,12,28,9.10
2013,03,03,12,29,9.00
2013,03,03,12,30,9.00
2013,03,03,12,31,8.90
2013,03,03,12,32,8.80
2013,03,03,12,33,8.70
2013,03,03,12,34,8.60
2013,03,03,12,35,8.60
2013,03,03,12,36,8.50
2013,03,03,12,37,8.50
2013,03,03,12,38,8.50
2013,03,03,12,39,8.40
2013,03,03,12,40,8.40
2013,03,03,12,41,8.40
2013,03,03,12,42,8.40
2013,03,03,12,43,8.40
2013,03,03,12,44,8.40
2013,03,03,12,45,8.40
2013,03,03,12,46,8.40
2013,03,03,12,47,8.30
2013,03,03,12,48,8.20
2013,03,03,12,49,8.20
2013,03,03,12,50,8.20
2013,03,03,12,51,8.20
2013,03,03,12,52,8.20
2013,03,03,12,53,8.20
2013,03,03,12,54,8.10
2013,03,03,12,55,8.10
2013,03,03,12,56,8.10
2013,03,03,12,57,8.10
2013,03,03,12,58,8.10
2013,03,03,12,59,8.00
2013,03,03,13,00,8.00
2013,03,03,13,01,8.10
2013,03,03,13,02,8.10
2013,03,03,13,03,8.10
2013,03,03,13,04,8.10
2013,03,03,13,05,8.10
2013,03,03,13,06,8.10
2013,03,03,13,07,8.00
2013,03,03,13,08,8.10
2013,03,03,13,09,8.00
2013,03,03,13,10,8.00
2013,03,03,13,11,7.90
2013,03,03,13,12,7.90
2013,03,03,13,13,7.80
2013,03,03,13,14,7.80
2013,03,03,13,15,7.80
2013,03,03,13,16,7.80
2013,03,03,13,17,7.90
2013,03,03,13,18,8.00
2013,03,03,13,19,8.00
2013,03,03,13,20,8.10
2013,03,03,13,21,8.20
2013,03,03,13,22,8.30
2013,03,03,13,23,8.40
2013,03,03,13,24,8.40
2013,03,03,13,25,8.50
2013,03,03,13,26,8.60
2013,03,03,13,27,8.70
2013,03,03,13,28,8.70
2013,03,03,13,29,8.80
2013,03,03,13,30,8.90
2013,03,03,13,31,9.00
2013,03,03,13,32,9.00
2013,03,03,13,33,9.20
2013,03,03,13,34,9.30
2013,03,03,13,35,9.40
2013,03,03,13,36,9.40
2013,03,03,13,37,9.40
2013,03,03,13,38,9.50
2013,03,03,13,39,9.50
2013,03,03,13,40,9.50
2013,03,03,13,41,9.60
2013,03,03,13,42,9.70
2013,03,03,13,43,9.80
2013,03,03,13,44,9.80
2013,03,03,13,45,9.80
2013,03,03,13,46,9.80
2013,03,03,13,47,9.80
2013,03,03,13,48,9.80
2013,03,03,13,49,9.70
2013,03,03,13,50,9.70
2013,03,03,13,51,9.60
2013,03,03,13,52,9.60
2013,03,03,13,53,9.70
2013,03,03,13,54,9.60
2013,03,03,13,55,9.60
2013,03,03,13,56,9.60
2013,03,03,13,57,9.60
2013,03,03,13,58,9.60
2013,03,03,13,59,9.70
2013,03,03,14,00,9.70
2013,03,03,14,01,9.70
2013,03,03,14,02,9.70
2013,03,03,14,03,9.80
2013,03,03,14,04,9.90
2013,03,03,14,05,9.90
2013,03,03,14,06,10.00
2013,03,03,14,07,10.10
2013,03,03,14,08,10.20
2013,03,03,14,09,10.30
2013,03,03,14,10,10.40
2013,03,03,14,11,10.20
2013,03,03,14,12,10.10
2013,03,03,14,13,10.10
2013,03,03,14,14,10.00
2013,03,03,14,15,9.90
2013,03,03,14,16,9.90
2013,03,03,14,17,9.80
2013,03,03,14,18,9.70
2013,03,03,14,19,9.60
2013,03,03,14,20,9.50
2013,03,03,14,21,9.40
2013,03,03,14,22,9.40
2013,03,03,14,23,9.40
2013,03,03,14,24,9.40
2013,03,03,14,25,9.40
2013,03,03,14,26,9.40
2013,03,03,14,27,9.40
2013,03,03,14,28,9.40
2013,03,03,14,29,9.40
2013,03,03,14,30,9.50
2013,03,03,14,31,9.60
2013,03,03,14,32,9.60
2013,03,03,14,33,9.60
2013,03,03,14,34,9.70
2013,03,03,14,35,9.60
2013,03,03,14,36,9.60
2013,03,03,14,37,9.50
2013,03,03,14,38,9.40
2013,03,03,14,39,9.30
2013,03,03,14,40,9.30
2013,03,03,14,41,9.40
2013,03,03,14,42,9.40
2013,03,03,14,43,9.50
2013,03,03,14,44,9.50
2013,03,03,14,45,9.50
2013,03,03,14,46,9.60
2013,03,03,14,47,9.70
2013,03,03,14,48,9.70
2013,03,03,14,49,9.90
2013,03,03,14,50,10.10
2013,03,03,14,51,10.20
2013,03,03,14,52,10.20
2013,03,03,14,53,10.20
2013,03,03,14,54,10.10
2013,03,03,14,55,10.10
2013,03,03,14,56,9.90
2013,03,03,14,57,9.80
2013,03,03,14,58,9.70
2013,03,03,14,59,9.60
2013,03,03,15,00,9.50
2013,03,03,15,01,9.30
2013,03,03,15,02,9.30
2013,03,03,15,03,9.20
2013,03,03,15,04,9.20
2013,03,03,15,05,9.10
2013,03,03,15,06,9.00
2013,03,03,15,07,8.90
2013,03,03,15,08,8.90
2013,03,03,15,09,8.90
2013,03,03,15,10,8.80
2013,03,03,15,11,8.80
2013,03,03,15,12,8.70
2013,03,03,15,13,8.70
2013,03,03,15,14,8.70
2013,03,03,15,15,8.70
2013,03,03,15,16,8.70
2013,03,03,15,17,8.70
2013,03,03,15,18,8.70
2013,03,03,15,19,8.70
2013,03,03,15,20,8.60
2013,03,03,15,21,8.60
2013,03,03,15,22,8.60
2013,03,03,15,23,8.60
2013,03,03,15,24,8.60
2013,03,03,15,25,8.60
2013,03,03,15,26,8.70
2013,03,03,15,27,8.60
2013,03,03,15,28,8.60
2013,03,03,15,29,8.60
2013,03,03,15,30,8.60
2013,03,03,15,31,8.50
2013,03,03,15,32,8.60
2013,03,03,15,33,8.70
2013,03,03,15,34,8.70
2013,03,03,15,35,8.60
2013,03,03,15,36,8.60
2013,03,03,15,37,8.50
2013,03,03,15,38,8.50
2013,03,03,15,39,8.50
2013,03,03,15,40,8.40
2013,03,03,15,41,8.40
2013,03,03,15,42,8.30
2013,03,03,15,43,8.30
2013,03,03,15,44,8.30
2013,03,03,15,45,8.30
2013,03,03,15,46,8.30
2013,03,03,15,47,8.30
2013,03,03,15,48,8.20
2013,03,03,15,49,8.20
2013,03,03,15,50,8.20
2013,03,03,15,51,8.20
2013,03,03,15,52,8.10
2013,03,03,15,53,8.10
2013,03,03,15,54,8.10
2013,03,03,15,55,8.10
2013,03,03,15,56,8.00
2013,03,03,15,57,8.00
2013,03,03,15,58,8.00
2013,03,03,15,59,8.00
2013,03,03,16,00,8.00
2013,03,03,16,01,8.00
2013,03,03,16,02,7.90
2013,03,03,16,03,7.90
2013,03,03,16,04,7.90
2013,03,03,16,05,7.90
2013,03,03,16,06,7.90
2013,03,03,16,07,7.90
2013,03,03,16,08,7.90
2013,03,03,16,09,7.80
2013,03,03,16,10,7.80
2013,03,03,16,11,7.80
2013,03,03,16,12,7.80
2013,03,03,16,13,7.80
2013,03,03,16,14,7.90
2013,03,03,16,15,7.90
2013,03,03,16,16,7.90
2013,03,03,16,17,7.90
2013,03,03,16,18,7.90
2013,03,03,16,19,7.90
2013,03,03,16,20,7.90
2013,03,03,16,21,7.90
2013,03,03,16,22,7.90
2013,03,03,16,23,7.90
2013,03,03,16,24,7.90
2013,03,03,16,25,7.90
2013,03,03,16,26,7.90
2013,03,03,16,27,7.90
2013,03,03,16,28,7.90
2013,03,03,16,29,8.00
2013,03,03,16,30,8.00
2013,03,03,16,31,8.00
2013,03,03,16,32,8.00
2013,03,03,16,33,8.10
2013,03,03,16,34,8.10
2013,03,03,16,35,8.10
2013,03,03,16,36,8.10
2013,03,03,16,37,8.10
2013,03,03,16,38,8.10
2013,03,03,16,39,8.10
2013,03,03,16,40,8.10
2013,03,03,16,41,8.10
2013,03,03,16,42,8.10
2013,03,03,16,43,8.10
2013,03,03,16,44,8.10
2013,03,03,16,45,8.10
2013,03,03,16,46,8.20
2013,03,03,16,47,8.20
2013,03,03,16,48,8.20
2013,03,03,16,49,8.20
2013,03,03,16,50,8.20
2013,03,03,16,51,8.20
2013,03,03,16,52,8.20
2013,03,03,16,53,8.10
2013,03,03,16,54,8.10
2013,03,03,16,55,8.00
2013,03,03,16,56,8.00
2013,03,03,16,57,8.00
2013,03,03,16,58,7.90
2013,03,03,16,59,7.90
2013,03,03,17,00,7.90
2013,03,03,17,01,7.80
2013,03,03,17,02,7.80
2013,03,03,17,03,7.80
2013,03,03,17,04,7.80
2013,03,03,17,05,7.80
2013,03,03,17,06,7.80
2013,03,03,17,07,7.80
2013,03,03,17,08,7.80
2013,03,03,17,09,7.80
2013,03,03,17,10,7.70
2013,03,03,17,11,7.70
2013,03,03,17,12,7.70
2013,03,03,17,13,7.70
2013,03,03,17,14,7.70
2013,03,03,17,15,7.60
2013,03,03,17,16,7.60
2013,03,03,17,17,7.60
2013,03,03,17,18,7.60
2013,03,03,17,19,7.60
2013,03,03,17,20,7.60
2013,03,03,17,21,7.60
2013,03,03,17,22,7.60
2013,03,03,17,23,7.60
2013,03,03,17,24,7.50
2013,03,03,17,25,7.50
2013,03,03,17,26,7.50
2013,03,03,17,27,7.50
2013,03,03,17,28,7.50
2013,03,03,17,29,7.40
2013,03,03,17,30,7.40
2013,03,03,17,31,7.40
2013,03,03,17,32,7.40
2013,03,03,17,33,7.30
2013,03,03,17,34,7.30
2013,03,03,17,35,7.30
2013,03,03,17,36,7.30
2013,03,03,17,37,7.30
2013,03,03,17,38,7.30
2013,03,03,17,39,7.30
2013,03,03,17,40,7.30
2013,03,03,17,41,7.30
2013,03,03,17,42,7.30
2013,03,03,17,43,7.30
2013,03,03,17,44,7.30
2013,03,03,17,45,7.30
2013,03,03,17,46,7.20
2013,03,03,17,47,7.20
2013,03,03,17,48,7.20
2013,03,03,17,49,7.20
2013,03,03,17,50,7.20
2013,03,03,17,51,7.10
2013,03,03,17,52,7.10
2013,03,03,17,53,7.10
2013,03,03,17,54,7.00
2013,03,03,17,55,7.00
2013,03,03,17,56,6.90
2013,03,03,17,57,6.90
2013,03,03,17,58,6.80
2013,03,03,17,59,6.80
2013,03,03,18,00,6.70
2013,03,03,18,01,6.70
2013,03,03,18,02,6.70
2013,03,03,18,03,6.60
2013,03,03,18,04,6.60